Location: Morlupo
(42.1333°N, 12.5000°E)
Time: 16:10:00
(UTC+00:00)

SJ-11-01 - Pass Details

Date: 18 September 2020
Orbit: 684 x 701 km, 98.0° (Epoch: 26 October)

Event Time Altitude Azimuth Distance (km) Brightness Sun altitude
Rises 18:01:44 0° 160° (SSE) 3,066 7.3 -9.7°
Reaches altitude 10° 18:03:59 10° 159° (SSE) 2,151 6.5 -10.1°
Maximum altitude 18:08:40 73° 76° (ENE) 729 4.2 -10.9°
Drops below altitude 10° 18:13:23 10° 351° (N) 2,156 7.1 -11.8°
Sets 18:15:38 0° 350° (N) 3,075 8.0 -12.2°
